Location: *
(40.7765°S, 106.5327°E)
Time: 15:19:03
(UTC+00:00)

Cosmos 1939 Rocket - Pass Details

Date: 26 May 2022
Orbit: 530 x 580 km, 97.4° (Epoch: 04 July)

Event Time Altitude Azimuth Distance (km) Brightness Sun altitude
Rises 10:01:41 0° 156° (SSE) 2,715 5.9 -4.9°
Reaches altitude 10° 10:04:04 10° 144° (SE) 1,813 4.9 -5.3°
Maximum altitude 10:07:25 27° 84° (E) 1,060 3.8 -5.9°
Drops below altitude 10° 10:10:44 10° 25° (NNE) 1,792 5.4 -6.5°
Sets 10:13:05 0° 12° (NNE) 2,677 6.5 -6.9°
